QPF
0.01 0.01 0.02 0.02 0.03 0.03 0.03 0.03 0.04 0.05 0.05 0.04 0.03 0.02 0.02 0.02 0.02 0.02 0.03 0.03 0.04 0.04 0.03 0.04 0.04 0.04 0.05 0.05 0.05 0.04 0.04 0.05 0.07 0.06 0.05 0.04 0.03 0.03 0.01 0.01 0.01 0.01 0.00
0.01 0.01 0.01 0.02 0.03 0.03 0.03 0.03 0.03 0.04 0.04 0.04 0.04 0.03 0.02 0.03 0.03 0.02 0.02 0.02 0.03 0.04 0.04 0.03 0.03 0.03 0.03 0.05 0.05 0.05 0.05 0.05 0.06 0.07 0.06 0.04 0.03 0.03 0.03 0.02 0.01 0.00 0.01
0.01 0.02 0.02 0.03 0.04 0.03 0.04 0.04 0.05 0.05 0.04 0.05 0.06 0.05 0.03 0.04 0.03 0.02 0.02 0.02 0.02 0.03 0.04 0.04 0.03 0.03 0.03 0.04 0.05 0.06 0.04 0.03 0.04 0.06 0.06 0.05 0.03 0.02 0.03 0.03 0.02 0.02 0.01
0.01 0.02 0.03 0.04 0.06 0.06 0.07 0.07 0.07 0.06 0.04 0.04 0.05 0.06 0.06 0.04 0.03 0.02 0.02 0.03 0.03 0.03 0.02 0.03 0.04 0.03 0.05 0.06 0.05 0.07 0.06 0.05 0.05 0.05 0.06 0.07 0.05 0.03 0.03 0.03 0.02 0.02 0.01
0.02 0.02 0.02 0.02 0.04 0.06 0.08 0.10 0.10 0.09 0.09 0.08 0.07 0.05 0.04 0.03 0.03 0.03 0.03 0.03 0.04 0.05 0.04 0.04 0.03 0.03 0.03 0.03 0.03 0.05 0.05 0.05 0.04 0.04 0.05 0.07 0.05 0.04 0.04 0.03 0.03 0.02 0.02
0.01 0.01 0.01 0.01 0.02 0.04 0.05 0.07 0.07 0.07 0.08 0.09 0.10 0.08 0.04 0.02 0.02 0.02 0.02 0.03 0.03 0.04 0.04 0.04 0.04 0.03 0.01 0.01 0.01 0.01 0.02 0.04 0.03 0.04 0.03 0.04 0.05 0.04 0.05 0.04 0.04 0.04 0.03
0.01 0.01 0.01 0.01 0.01 0.02 0.03 0.03 0.04 0.03 0.04 0.05 0.06 0.06 0.04 0.03 0.02 0.01 0.01 0.02 0.03 0.04 0.05 0.05 0.02 0.01 0.01 0.01 0.01 0.01 0.01 0.01 0.02 0.03 0.03 0.03 0.04 0.04 0.06 0.05 0.05 0.04 0.03
0.01 0.01 0.01 0.01 0.01 0.01 0.02 0.02 0.02 0.03 0.03 0.04 0.04 0.04 0.03 0.03 0.02 0.01 0.01 0.02 0.03 0.03 0.03 0.04 0.02 0.01 0.01 0.02 0.03 0.02 0.02 0.02 0.02 0.01 0.02 0.02 0.03 0.04 0.05 0.05 0.06 0.05 0.03
0.01 0.01 0.01 0.01 0.01 0.01 0.01 0.01 0.02 0.03 0.03 0.03 0.03 0.04 0.04 0.04 0.03 0.02 0.01 0.01 0.02 0.02 0.02 0.02 0.02 0.02 0.02 0.03 0.04 0.03 0.02 0.02 0.01 0.01 0.02 0.02 0.02 0.02 0.03 0.03 0.03 0.04 0.05
0.01 0.01 0.01 0.01 0.01 0.01 0.02 0.02 0.02 0.03 0.04 0.04 0.03 0.03 0.03 0.03 0.03 0.02 0.01 0.01 0.01 0.02 0.02 0.01 0.02 0.02 0.02 0.02 0.02 0.03 0.02 0.02 0.02 0.02 0.02 0.02 0.01 0.02 0.02 0.02 0.03 0.03 0.04
0.01 0.00 0.00 0.01 0.02 0.02 0.02 0.03 0.03 0.03 0.04 0.05 0.04 0.03 0.02 0.02 0.03 0.02 0.02 0.01 0.01 0.01 0.01 0.01 0.01 0.01 0.02 0.02 0.02 0.02 0.02 0.03 0.03 0.04 0.03 0.03 0.03 0.02 0.02 0.02 0.02 0.03 0.04
0.01 0.01 0.01 0.01 0.02 0.03 0.03 0.03 0.03 0.04 0.04 0.04 0.04 0.04 0.02 0.02 0.02 0.02 0.01 0.01 0.01 0.01 0.02 0.03 0.03 0.03 0.02 0.01 0.01 0.01 0.02 0.04 0.04 0.04 0.03 0.03 0.03 0.03 0.02 0.02 0.03 0.03 0.04
0.02 0.02 0.01 0.02 0.02 0.04 0.05 0.04 0.04 0.04 0.05 0.05 0.04 0.03 0.03 0.02 0.02 0.03 0.03 0.02 0.01 0.01 0.02 0.02 0.03 0.03 0.03 0.03 0.02 0.02 0.02 0.02 0.03 0.03 0.03 0.03 0.04 0.04 0.04 0.04 0.04 0.04 0.03
0.02 0.02 0.02 0.02 0.02 0.04 0.06 0.06 0.05 0.05 0.05 0.05 0.05 0.05 0.04 0.04 0.03 0.03 0.03 0.04 0.03 0.03 0.02 0.02 0.02 0.02 0.03 0.03 0.03 0.03 0.03 0.03 0.04 0.05 0.05 0.05 0.07 0.08 0.07 0.06 0.05 0.05 0.05
0.03 0.03 0.03 0.03 0.03 0.04 0.06 0.08 0.08 0.07 0.07 0.06 0.06 0.06 0.06 0.04 0.05 0.06 0.05 0.04 0.04 0.04 0.03 0.02 0.01 0.01 0.01 0.02 0.03 0.03 0.04 0.04 0.04 0.05 0.06 0.07 0.08 0.08 0.07 0.06 0.06 0.05 0.05
0.03 0.03 0.04 0.04 0.04 0.04 0.05 0.08 0.09 0.09 0.07 0.05 0.05 0.04 0.04 0.04 0.04 0.05 0.05 0.04 0.04 0.03 0.02 0.02 0.01 0.01 0.01 0.01 0.03 0.04 0.05 0.04 0.04 0.03 0.04 0.05 0.05 0.04 0.03 0.03 0.04 0.05 0.04
0.02 0.03 0.03 0.04 0.05 0.06 0.05 0.05 0.05 0.06 0.05 0.05 0.05 0.04 0.02 0.02 0.02 0.02 0.03 0.04 0.04 0.02 0.02 0.02 0.03 0.02 0.02 0.03 0.04 0.05 0.05 0.05 0.05 0.05 0.05 0.04 0.04 0.03 0.02 0.02 0.02 0.03 0.04
0.01 0.01 0.01 0.02 0.03 0.05 0.07 0.05 0.04 0.04 0.03 0.03 0.03 0.03 0.02 0.02 0.02 0.03 0.04 0.03 0.03 0.03 0.02 0.02 0.02 0.02 0.03 0.03 0.03 0.02 0.02 0.02 0.03 0.03 0.04 0.04 0.04 0.04 0.04 0.03 0.03 0.03 0.03
0.01 0.01 0.01 0.01 0.01 0.03 0.06 0.06 0.05 0.04 0.03 0.03 0.03 0.03 0.03 0.03 0.03 0.03 0.03 0.03 0.03 0.02 0.02 0.02 0.01 0.01 0.01 0.02 0.02 0.02 0.02 0.02 0.02 0.02 0.03 0.04 0.03 0.03 0.04 0.03 0.03 0.03 0.03
0.01 0.01 0.01 0.01 0.01 0.01 0.03 0.05 0.04 0.05 0.05 0.04 0.03 0.02 0.02 0.02 0.02 0.02 0.02 0.01 0.02 0.02 0.02 0.01 0.01 0.01 0.01 0.01 0.01 0.01 0.02 0.02 0.02 0.02 0.02 0.02 0.03 0.03 0.04 0.03 0.02 0.02 0.02
0.01 0.00 0.00 0.01 0.01 0.01 0.01 0.02 0.02 0.03 0.04 0.03 0.03 0.02 0.02 0.02 0.02 0.02 0.02 0.02 0.02 0.02 0.02 0.02 0.01 0.02 0.01 0.01 0.01 0.01 0.01 0.01 0.02 0.02 0.02 0.02 0.02 0.03 0.03 0.03 0.03 0.02 0.02
0.00 0.00 0.00 0.01 0.01 0.01 0.01 0.01 0.01 0.01 0.02 0.02 0.02 0.01 0.02 0.02 0.03 0.03 0.02 0.02 0.02 0.01 0.01 0.01 0.01 0.01 0.01 0.01 0.01 0.01 0.01 0.01 0.02 0.02 0.02 0.02 0.03 0.03 0.03 0.03 0.04 0.04 0.03
0.01 0.00 0.00 0.01 0.01 0.01 0.01 0.01 0.02 0.02 0.02 0.02 0.02 0.02 0.01 0.01 0.02 0.02 0.02 0.02 0.02 0.02 0.02 0.02 0.01 0.01 0.01 0.02 0.02 0.02 0.01 0.02 0.02 0.03 0.03 0.03 0.03 0.03 0.03 0.03 0.03 0.03 0.03
0.01 0.01 0.01 0.01 0.01 0.01 0.02 0.02 0.02 0.03 0.03 0.03 0.03 0.03 0.03 0.02 0.02 0.02 0.02 0.02 0.02 0.02 0.02 0.02 0.01 0.01 0.01 0.01 0.02 0.02 0.02 0.02 0.03 0.03 0.04 0.04 0.04 0.03 0.03 0.02 0.02 0.02 0.02
0.01 0.01 0.01 0.01 0.01 0.01 0.02 0.02 0.02 0.03 0.03 0.04 0.05 0.05 0.04 0.03 0.03 0.03 0.03 0.03 0.03 0.03 0.02 0.02 0.02 0.01 0.01 0.01 0.02 0.02 0.03 0.03 0.04 0.04 0.04 0.05 0.05 0.05 0.05 0.05 0.04 0.03 0.03
0.01 0.01 0.01 0.02 0.02 0.02 0.02 0.02 0.03 0.04 0.05 0.06 0.07 0.07 0.06 0.05 0.04 0.03 0.03 0.04 0.05 0.04 0.03 0.02 0.02 0.02 0.01 0.01 0.01 0.02 0.02 0.02 0.03 0.04 0.04 0.05 0.05 0.04 0.03 0.04 0.04 0.05 0.05
MSLP
1004.09 1004.63 1005.13 1005.58 1005.94 1006.19 1006.35 1006.45 1006.50 1006.53 1006.59 1006.67 1006.79 1006.96 1007.14 1007.35 1007.55 1007.76 1007.96 1008.16 1008.37 1008.58 1008.79 1009.00 1009.20 1009.37 1009.50 1009.59 1009.64 1009.64 1009.64 1009.63 1009.64 1009.71 1009.82 1009.98 1010.19 1010.41 1010.63 1010.81 1010.94 1010.99 1010.97
1004.48 1004.96 1005.42 1005.83 1006.15 1006.37 1006.50 1006.56 1006.58 1006.59 1006.61 1006.67 1006.78 1006.93 1007.12 1007.32 1007.52 1007.71 1007.89 1008.05 1008.21 1008.37 1008.54 1008.70 1008.87 1009.03 1009.18 1009.30 1009.40 1009.47 1009.53 1009.58 1009.65 1009.74 1009.87 1010.03 1010.22 1010.42 1010.61 1010.78 1010.90 1010.96 1010.97
1004.91 1005.33 1005.73 1006.07 1006.33 1006.50 1006.59 1006.60 1006.59 1006.57 1006.58 1006.64 1006.75 1006.91 1007.11 1007.32 1007.53 1007.72 1007.89 1008.03 1008.16 1008.28 1008.41 1008.55 1008.70 1008.86 1009.03 1009.19 1009.33 1009.46 1009.57 1009.67 1009.76 1009.86 1009.98 1010.12 1010.27 1010.43 1010.58 1010.71 1010.80 1010.86 1010.88
1005.35 1005.70 1006.02 1006.28 1006.47 1006.57 1006.60 1006.57 1006.52 1006.49 1006.50 1006.57 1006.71 1006.90 1007.13 1007.37 1007.60 1007.80 1007.97 1008.10 1008.20 1008.29 1008.39 1008.51 1008.66 1008.83 1009.02 1009.22 1009.41 1009.58 1009.72 1009.84 1009.94 1010.03 1010.12 1010.21 1010.31 1010.40 1010.50 1010.58 1010.64 1010.67 1010.69
1005.78 1006.06 1006.30 1006.48 1006.58 1006.61 1006.57 1006.50 1006.43 1006.39 1006.41 1006.51 1006.69 1006.93 1007.21 1007.49 1007.74 1007.95 1008.11 1008.23 1008.30 1008.37 1008.44 1008.55 1008.69 1008.88 1009.09 1009.32 1009.54 1009.74 1009.91 1010.04 1010.13 1010.19 1010.23 1010.27 1010.30 1010.33 1010.36 1010.39 1010.41 1010.41 1010.41
1006.24 1006.45 1006.62 1006.72 1006.74 1006.69 1006.59 1006.48 1006.39 1006.35 1006.40 1006.53 1006.76 1007.05 1007.37 1007.68 1007.95 1008.17 1008.31 1008.40 1008.44 1008.47 1008.51 1008.59 1008.73 1008.92 1009.15 1009.40 1009.65 1009.87 1010.05 1010.18 1010.26 1010.29 1010.28 1010.26 1010.23 1010.21 1010.18 1010.16 1010.14 1010.11 1010.08
1006.78 1006.95 1007.05 1007.07 1007.02 1006.91 1006.76 1006.61 1006.51 1006.48 1006.55 1006.72 1006.99 1007.31 1007.66 1007.98 1008.26 1008.45 1008.55 1008.59 1008.58 1008.55 1008.55 1008.59 1008.71 1008.89 1009.13 1009.39 1009.66 1009.91 1010.09 1010.22 1010.28 1010.28 1010.24 1010.18 1010.10 1010.03 1009.97 1009.92 1009.88 1009.82 1009.77
1007.49 1007.62 1007.68 1007.65 1007.55 1007.38 1007.19 1007.02 1006.91 1006.88 1006.97 1007.17 1007.45 1007.79 1008.14 1008.44 1008.68 1008.81 1008.85 1008.81 1008.72 1008.61 1008.54 1008.54 1008.61 1008.77 1009.00 1009.28 1009.56 1009.81 1010.01 1010.14 1010.19 1010.18 1010.11 1010.03 1009.93 1009.84 1009.77 1009.71 1009.65 1009.60 1009.53
1008.41 1008.53 1008.56 1008.51 1008.37 1008.17 1007.96 1007.78 1007.66 1007.64 1007.73 1007.93 1008.21 1008.53 1008.84 1009.09 1009.24 1009.29 1009.23 1009.08 1008.88 1008.68 1008.52 1008.45 1008.47 1008.60 1008.81 1009.08 1009.37 1009.62 1009.83 1009.96 1010.01 1009.99 1009.93 1009.83 1009.74 1009.65 1009.58 1009.53 1009.49 1009.45 1009.39
1009.53 1009.66 1009.69 1009.63 1009.49 1009.29 1009.08 1008.89 1008.77 1008.75 1008.83 1009.01 1009.26 1009.52 1009.76 1009.92 1009.97 1009.90 1009.72 1009.44 1009.11 1008.80 1008.55 1008.39 1008.36 1008.44 1008.62 1008.88 1009.15 1009.41 1009.61 1009.75 1009.80 1009.78 1009.72 1009.63 1009.54 1009.47 1009.42 1009.39 1009.37 1009.35 1009.30
1010.79 1010.94 1011.00 1010.96 1010.84 1010.66 1010.46 1010.28 1010.17 1010.14 1010.21 1010.35 1010.54 1010.73 1010.87 1010.92 1010.85 1010.65 1010.32 1009.91 1009.47 1009.04 1008.69 1008.45 1008.35 1008.38 1008.52 1008.75 1009.00 1009.24 1009.44 1009.56 1009.61 1009.58 1009.52 1009.43 1009.34 1009.28 1009.25 1009.24 1009.24 1009.24 1009.20
1012.08 1012.26 1012.35 1012.35 1012.27 1012.13 1011.97 1011.82 1011.72 1011.68 1011.72 1011.82 1011.94 1012.05 1012.09 1012.02 1011.83 1011.50 1011.05 1010.52 1009.96 1009.44 1009.00 1008.68 1008.51 1008.49 1008.59 1008.77 1008.99 1009.20 1009.37 1009.46 1009.48 1009.44 1009.35 1009.24 1009.14 1009.07 1009.03 1009.03 1009.04 1009.04 1009.02
1013.28 1013.49 1013.62 1013.67 1013.64 1013.55 1013.43 1013.31 1013.23 1013.20 1013.22 1013.27 1013.33 1013.36 1013.30 1013.13 1012.83 1012.40 1011.85 1011.23 1010.60 1010.00 1009.49 1009.12 1008.90 1008.82 1008.87 1009.00 1009.17 1009.33 1009.45 1009.49 1009.46 1009.37 1009.23 1009.07 1008.93 1008.82 1008.75 1008.72 1008.71 1008.70 1008.66
1014.28 1014.51 1014.67 1014.76 1014.78 1014.74 1014.67 1014.60 1014.54 1014.52 1014.52 1014.55 1014.56 1014.52 1014.40 1014.16 1013.78 1013.28 1012.68 1012.02 1011.34 1010.70 1010.17 1009.76 1009.49 1009.37 1009.37 1009.45 1009.55 1009.65 1009.69 1009.67 1009.56 1009.39 1009.17 1008.94 1008.73 1008.55 1008.41 1008.32 1008.25 1008.20 1008.13
1015.02 1015.25 1015.42 1015.54 1015.60 1015.61 1015.58 1015.55 1015.52 1015.51 1015.52 1015.53 1015.51 1015.44 1015.28 1015.00 1014.60 1014.09 1013.47 1012.81 1012.13 1011.50 1010.97 1010.55 1010.27 1010.12 1010.07 1010.09 1010.13 1010.14 1010.11 1009.99 1009.79 1009.53 1009.21 1008.88 1008.56 1008.28 1008.05 1007.86 1007.71 1007.59 1007.46
1015.52 1015.71 1015.88 1016.00 1016.08 1016.12 1016.13 1016.13 1016.13 1016.14 1016.16 1016.17 1016.15 1016.07 1015.91 1015.63 1015.25 1014.76 1014.18 1013.56 1012.93 1012.35 1011.84 1011.44 1011.16 1010.99 1010.91 1010.88 1010.85 1010.79 1010.66 1010.46 1010.16 1009.80 1009.38 1008.94 1008.51 1008.11 1007.75 1007.45 1007.20 1006.98 1006.77
1015.85 1015.99 1016.13 1016.24 1016.31 1016.36 1016.39 1016.41 1016.43 1016.46 1016.50 1016.52 1016.51 1016.45 1016.31 1016.07 1015.73 1015.30 1014.79 1014.24 1013.69 1013.17 1012.73 1012.37 1012.11 1011.94 1011.83 1011.75 1011.67 1011.54 1011.34 1011.05 1010.67 1010.21 1009.69 1009.15 1008.61 1008.09 1007.62 1007.20 1006.83 1006.49 1006.19
1016.13 1016.21 1016.29 1016.36 1016.42 1016.46 1016.49 1016.52 1016.56 1016.60 1016.65 1016.69 1016.70 1016.66 1016.56 1016.36 1016.09 1015.73 1015.31 1014.85 1014.39 1013.96 1013.58 1013.28 1013.04 1012.88 1012.76 1012.65 1012.52 1012.34 1012.08 1011.72 1011.28 1010.75 1010.16 1009.54 1008.91 1008.29 1007.71 1007.17 1006.68 1006.23 1005.82
1016.47 1016.49 1016.51 1016.53 1016.55 1016.57 1016.59 1016.62 1016.66 1016.72 1016.78 1016.83 1016.85 1016.83 1016.76 1016.61 1016.40 1016.11 1015.77 1015.40 1015.03 1014.68 1014.37 1014.12 1013.92 1013.77 1013.64 1013.51 1013.35 1013.13 1012.83 1012.43 1011.95 1011.38 1010.75 1010.08 1009.38 1008.69 1008.03 1007.39 1006.79 1006.23 1005.70
1016.96 1016.92 1016.88 1016.86 1016.84 1016.83 1016.84 1016.86 1016.90 1016.95 1017.00 1017.05 1017.08 1017.07 1017.01 1016.89 1016.72 1016.49 1016.21 1015.92 1015.62 1015.33 1015.08 1014.88 1014.70 1014.56 1014.43 1014.28 1014.09 1013.85 1013.52 1013.11 1012.60 1012.02 1011.37 1010.67 1009.95 1009.21 1008.49 1007.78 1007.09 1006.42 1005.79
1017.64 1017.55 1017.47 1017.40 1017.35 1017.32 1017.31 1017.32 1017.34 1017.37 1017.41 1017.44 1017.45 1017.43 1017.37 1017.25 1017.09 1016.89 1016.66 1016.41 1016.16 1015.92 1015.71 1015.52 1015.36 1015.22 1015.08 1014.91 1014.70 1014.43 1014.08 1013.65 1013.14 1012.56 1011.91 1011.21 1010.47 1009.72 1008.96 1008.19 1007.43 1006.68 1005.96
1018.47 1018.35 1018.24 1018.16 1018.09 1018.04 1018.01 1018.00 1018.00 1018.02 1018.02 1018.02 1017.99 1017.93 1017.84 1017.70 1017.53 1017.33 1017.10 1016.87 1016.64 1016.42 1016.22 1016.05 1015.88 1015.72 1015.55 1015.36 1015.11 1014.81 1014.44 1013.99 1013.47 1012.88 1012.24 1011.54 1010.81 1010.05 1009.26 1008.47 1007.66 1006.85 1006.04
1019.38 1019.25 1019.14 1019.04 1018.97 1018.91 1018.88 1018.85 1018.83 1018.81 1018.77 1018.72 1018.64 1018.53 1018.39 1018.20 1018.00 1017.77 1017.53 1017.29 1017.06 1016.84 1016.63 1016.44 1016.26 1016.07 1015.85 1015.61 1015.32 1014.96 1014.55 1014.07 1013.52 1012.92 1012.26 1011.56 1010.83 1010.06 1009.27 1008.45 1007.61 1006.75 1005.89
1020.26 1020.14 1020.03 1019.94 1019.88 1019.82 1019.78 1019.74 1019.70 1019.64 1019.56 1019.45 1019.31 1019.13 1018.92 1018.69 1018.43 1018.17 1017.90 1017.64 1017.39 1017.16 1016.93 1016.72 1016.50 1016.26 1016.00 1015.69 1015.33 1014.91 1014.43 1013.89 1013.29 1012.64 1011.96 1011.24 1010.49 1009.71 1008.90 1008.07 1007.21 1006.33 1005.44
1021.01 1020.90 1020.81 1020.74 1020.68 1020.63 1020.59 1020.54 1020.47 1020.37 1020.25 1020.09 1019.88 1019.65 1019.38 1019.09 1018.79 1018.49 1018.20 1017.91 1017.65 1017.39 1017.15 1016.90 1016.64 1016.35 1016.03 1015.64 1015.20 1014.70 1014.13 1013.51 1012.84 1012.13 1011.39 1010.63 1009.85 1009.04 1008.22 1007.38 1006.52 1005.63 1004.73
1021.55 1021.46 1021.39 1021.33 1021.28 1021.24 1021.19 1021.13 1021.04 1020.92 1020.75 1020.55 1020.30 1020.01 1019.70 1019.38 1019.05 1018.72 1018.41 1018.11 1017.84 1017.57 1017.31 1017.04 1016.74 1016.41 1016.02 1015.56 1015.03 1014.44 1013.78 1013.06 1012.30 1011.51 1010.70 1009.88 1009.05 1008.21 1007.37 1006.52 1005.66 1004.79 1003.91
Thickness
5730 5728 5726 5725 5725 5723 5721 5720 5718 5717 5716 5715 5713 5711 5710 5709 5708 5707 5707 5706 5704 5704 5704 5703 5703 5703 5704 5705 5705 5705 5705 5704 5700 5703 5706 5705 5702 5701 5700 5699 5698 5696 5696
5726 5723 5720 5719 5719 5717 5717 5715 5714 5712 5711 5710 5708 5707 5705 5704 5704 5703 5702 5701 5700 5699 5699 5698 5698 5699 5698 5699 5699 5700 5700 5699 5698 5695 5698 5699 5697 5697 5696 5696 5697 5696 5696
5720 5717 5714 5713 5712 5711 5710 5710 5708 5707 5706 5704 5703 5701 5700 5699 5698 5698 5697 5696 5695 5695 5694 5694 5694 5694 5693 5694 5694 5695 5695 5697 5696 5694 5694 5694 5695 5694 5693 5693 5695 5693 5694
5713 5711 5708 5706 5706 5705 5704 5704 5703 5701 5700 5699 5698 5697 5696 5695 5693 5692 5692 5691 5690 5690 5689 5689 5689 5689 5689 5689 5689 5688 5689 5690 5690 5691 5691 5691 5690 5691 5690 5690 5691 5691 5693
5704 5703 5701 5700 5699 5699 5698 5697 5696 5695 5695 5693 5692 5691 5691 5690 5689 5687 5686 5686 5685 5684 5684 5684 5685 5683 5682 5682 5685 5684 5684 5684 5686 5686 5687 5687 5686 5685 5686 5689 5689 5690 5691
5696 5695 5694 5693 5693 5691 5691 5690 5689 5689 5689 5687 5686 5685 5685 5686 5681 5678 5678 5680 5679 5679 5678 5679 5679 5678 5677 5675 5676 5676 5677 5678 5680 5681 5682 5681 5680 5683 5683 5685 5685 5684 5684
5688 5687 5686 5685 5684 5683 5683 5682 5681 5681 5680 5680 5680 5680 5679 5676 5672 5670 5669 5672 5673 5673 5673 5673 5676 5676 5674 5675 5673 5671 5671 5671 5671 5674 5676 5676 5677 5678 5678 5679 5679 5679 5680
5680 5679 5678 5677 5676 5675 5673 5672 5672 5672 5672 5672 5672 5672 5671 5669 5665 5664 5663 5665 5667 5667 5667 5668 5668 5668 5669 5668 5669 5670 5671 5670 5669 5669 5671 5672 5674 5674 5673 5674 5674 5675 5677
5672 5671 5670 5669 5667 5666 5664 5663 5663 5664 5664 5664 5665 5664 5663 5661 5657 5656 5655 5660 5661 5662 5663 5663 5663 5663 5660 5658 5661 5663 5664 5665 5664 5664 5663 5664 5664 5665 5667 5669 5670 5671 5672
5663 5662 5661 5660 5658 5657 5656 5655 5656 5656 5656 5657 5657 5657 5656 5654 5650 5649 5648 5655 5656 5658 5658 5658 5655 5654 5652 5651 5654 5656 5656 5658 5660 5661 5658 5658 5660 5661 5660 5663 5666 5667 5668
5654 5653 5652 5651 5650 5650 5649 5648 5648 5649 5649 5649 5649 5649 5649 5647 5645 5642 5641 5646 5650 5651 5653 5654 5654 5647 5645 5644 5645 5649 5649 5649 5652 5654 5656 5657 5658 5659 5660 5660 5662 5663 5664
5645 5644 5643 5642 5642 5643 5641 5641 5641 5640 5641 5641 5640 5641 5642 5641 5639 5636 5635 5635 5637 5642 5645 5647 5646 5640 5639 5638 5639 5640 5640 5640 5647 5649 5650 5652 5654 5656 5658 5658 5657 5658 5658
5636 5635 5634 5633 5632 5633 5632 5633 5633 5633 5634 5634 5634 5634 5635 5635 5633 5630 5628 5628 5629 5632 5637 5635 5634 5632 5632 5633 5633 5633 5634 5638 5641 5643 5645 5647 5650 5651 5653 5652 5653 5652 5652
5627 5626 5625 5624 5624 5624 5624 5626 5626 5626 5626 5627 5627 5626 5627 5628 5628 5626 5625 5625 5623 5625 5627 5627 5625 5625 5626 5628 5629 5630 5632 5635 5637 5638 5640 5643 5644 5645 5646 5647 5647 5647 5648
5618 5617 5616 5616 5616 5615 5616 5615 5616 5616 5615 5615 5618 5618 5618 5618 5616 5613 5615 5617 5618 5618 5617 5620 5622 5624 5626 5627 5628 5629 5630 5630 5631 5633 5635 5636 5637 5638 5639 5640 5640 5641 5641
5610 5609 5610 5610 5609 5609 5608 5608 5605 5605 5604 5603 5603 5604 5608 5605 5604 5604 5604 5604 5604 5604 5607 5612 5615 5617 5619 5622 5623 5624 5624 5625 5625 5627 5628 5629 5630 5631 5633 5635 5635 5634 5635
5602 5602 5602 5602 5601 5601 5600 5600 5600 5598 5595 5594 5594 5595 5595 5594 5595 5595 5594 5595 5595 5595 5601 5606 5608 5610 5613 5615 5617 5619 5619 5619 5619 5619 5620 5621 5623 5624 5626 5627 5628 5628 5629
5594 5593 5592 5593 5592 5592 5591 5592 5593 5593 5593 5593 5589 5587 5586 5586 5586 5586 5585 5586 5591 5592 5597 5600 5602 5603 5605 5607 5609 5611 5612 5612 5612 5612 5612 5613 5614 5616 5617 5619 5620 5620 5622
5587 5587 5585 5585 5585 5584 5584 5585 5585 5585 5586 5587 5587 5584 5580 5578 5578 5579 5578 5583 5588 5589 5591 5594 5595 5596 5597 5599 5601 5602 5603 5603 5603 5604 5604 5605 5606 5607 5609 5610 5612 5611 5612
5579 5576 5575 5578 5578 5579 5578 5578 5579 5579 5579 5580 5580 5580 5578 5577 5578 5577 5576 5579 5581 5583 5584 5586 5587 5588 5589 5590 5592 5593 5594 5595 5595 5595 5596 5597 5599 5599 5601 5602 5604 5605 5606
5575 5574 5568 5571 5572 5573 5573 5572 5572 5572 5573 5573 5572 5571 5566 5570 5572 5572 5572 5573 5574 5575 5576 5577 5578 5579 5580 5581 5583 5584 5585 5586 5587 5587 5588 5589 5591 5592 5592 5594 5596 5597 5598
5569 5569 5568 5567 5567 5567 5566 5566 5566 5566 5566 5566 5565 5564 5559 5562 5564 5565 5565 5565 5566 5566 5566 5567 5569 5570 5571 5572 5573 5574 5575 5576 5577 5578 5579 5581 5582 5583 5584 5585 5587 5588 5589
5562 5563 5563 5562 5561 5559 5559 5560 5560 5559 5559 5558 5558 5557 5557 5557 5557 5557 5558 5558 5557 5557 5557 5558 5559 5561 5561 5562 5563 5564 5565 5567 5568 5568 5569 5571 5573 5574 5575 5576 5577 5579 5580
5557 5557 5557 5556 5556 5555 5554 5554 5553 5552 5552 5551 5551 5551 5550 5550 5550 5550 5550 5550 5551 5550 5549 5549 5551 5551 5551 5551 5553 5554 5555 5555 5556 5558 5559 5561 5563 5565 5566 5568 5569 5572 5572
5550 5550 5550 5550 5549 5549 5548 5547 5546 5545 5545 5544 5544 5544 5544 5543 5544 5544 5543 5543 5542 5542 5542 5542 5542 5543 5543 5543 5543 5544 5543 5542 5543 5545 5548 5551 5553 5555 5557 5559 5561 5562 5563
5543 5543 5543 5543 5542 5541 5541 5540 5540 5539 5538 5537 5537 5537 5537 5537 5537 5536 5536 5536 5535 5535 5535 5535 5535 5535 5535 5534 5533 5533 5532 5532 5533 5533 5536 5541 5544 5546 5548 5550 5552 5553 5554